STARLINK-3141, 49459

Orbit data source: Space-Track

STARLINK-3141, 49459 is a payload satellite owned by SpaceX/Seattle (US) in LEO that was launched on Sat, 13 Nov 2021 UTC via an FALCON 9 launch vehicle from the Air Force Eastern Test Range (AFETR). Payload-class satellites include a variety of spacecraft equipped with specific instruments for various scientific and technological missions. These include communications satellites like Starlink; space stations such as the ISS; scientific satellites like the Hubble; Earth observation satellites from companies like Planet Labs, Umbra, and HawkEye 360; GPS; miniature CubeSats for education and research; and military/defense satellites.

Loading next visibility...
Identifier
49459, 2021-104BD
Orbit
LEO
Country
Flag of USUS
Related business
Manufacturer
SpaceX/Seattle
Mission
Operational Commercial Communications
Bus & Motor
STARLINK, Unknown motor
Mass
290 kg wet, ~270 kg dry
Launch date (UTC)
2021-11-13 (5 years ago)
Launch vehicle
FALCON 9
Launch site
Air Force Eastern Test Range (AFETR)
Object type
Payload
Rocket body
Debris
Shape & HBR
Box + 1 Pan, 10.1 m
Radar Cross Section
13.562 m², Large (>1 m²)

Expand to show TLE details & history
Last TLE update: 1 week ago

TLE from 1 week ago
0 STARLINK-3141
1 49459U 21104BD  26155.16351751 -.00001661  00000-0 -86322-4 0  9998
2 49459  53.1858 190.9007 0000956 121.7597 238.3488 15.08822837251830
Epoch: 2026-06-04T03:55Z
TLE epoch observation values (Epoch: 2026-06-04T03:55:27.912Z)
Latitude
-0.00004°
Longitude
-120.57735°
Altitude
541.037 km
Speed
7.593 km/s
True Right ascension
12h 43m 36s
True Declination
0° 00' 00"
Sunlit
Object was in full shadow at epoch
Visualization orbit readout
Latitude
Unknown
Longitude
Unknown
Altitude
Unknown
Speed
Unknown
Apparent Right ascension
Unknown
Apparent Declination
Unknown
Sunlit
N/A
Visualization observer readout
Local Sidereal Time
14:51:16
Azimuth
Unknown
Elevation
Unknown
Doppler factor
Unknown
Orbital elements
Apogee altitude
540.707 km
Perigee altitude
539.384 km
Semi-major axis
6,918.183 km
Eccentricity
0.0001
Inclination
53.1858°
RAAN
190.9007°
Arg. of periapsis
121.7597°
True anomaly
238.33948°
Mean anomaly
238.3488°
Eccentric anomaly
238.34414°
Mean motion
3.77186 °/min
Orbital period
95.44 mins
BSTAR
-0.000086322
Loading maneuver chart data...
Computing Atmospheric mass density...
Loading historical data...
Loading historical data...
Loading historical data...
Loading historical data...
Loading historical data...
Loading historical data...
Loading historical data...

Documentation

Showing up to 5 results
|